THY6390 UHPP-PANC

Flight info

Callsign THY6390
Flight time N/A
Altitude 35000
Route TUPAN4L TUPAN B244 UK T564 RUSOR/N0477F350 B241 ENM DCT MCG TAGER9
Aircraft B77L/H-SDE1E2E3FGHIJ2J3J4J5M1RWXY/LB1D1

Departure

Time 2026-04-21 16:12
Airport Yelizovo Airport (UHPP)

Arrival

Time N/A
Airport Ted Stevens Anchorage International Airport (PANC)
Time Latitude Longitude Altitude Speed Heading
2026-04-21 15:49 53.16878 158.42735 203 ft 0 kts 269°
2026-04-21 15:58 53.16878 158.42737 208 ft 2 kts 269°
2026-04-21 15:58 53.16878 158.42765 204 ft 2 kts 270°
2026-04-21 15:59 53.16878 158.42792 222 ft 2 kts 271°
2026-04-21 15:59 53.16877 158.42819 227 ft 2 kts 274°
2026-04-21 15:59 53.16876 158.42846 260 ft 2 kts 283°
2026-04-21 15:59 53.16869 158.42872 260 ft 2 kts 317°
2026-04-21 16:00 53.16861 158.42882 264 ft 1 kts 330°
2026-04-21 16:00 53.16860 158.42883 264 ft 0 kts 330°
2026-04-21 16:03 53.16861 158.42882 264 ft 0 kts 330°
2026-04-21 16:03 53.16873 158.42870 263 ft 4 kts 328°
2026-04-21 16:03 53.16906 158.42837 260 ft 7 kts 328°
2026-04-21 16:03 53.16961 158.42795 261 ft 10 kts 342°
2026-04-21 16:04 53.17033 158.42810 262 ft 12 kts 52°
2026-04-21 16:04 53.17077 158.42947 260 ft 15 kts 59°
2026-04-21 16:04 53.17134 158.43108 262 ft 17 kts 60°
2026-04-21 16:04 53.17199 158.43295 261 ft 20 kts 59°
2026-04-21 16:05 53.17267 158.43489 260 ft 20 kts 59°
2026-04-21 16:05 53.17341 158.43698 201 ft 20 kts 60°
2026-04-21 16:05 53.17410 158.43894 123 ft 21 kts 59°
2026-04-21 16:05 53.17479 158.44118 125 ft 23 kts 68°
2026-04-21 16:06 53.17520 158.44300 125 ft 10 kts 86°
2026-04-21 16:06 53.17468 158.44386 122 ft 13 kts 154°
2026-04-21 16:06 53.17378 158.44450 122 ft 15 kts 157°
2026-04-21 16:06 53.17271 158.44524 125 ft 18 kts 158°
2026-04-21 16:07 53.17190 158.44580 124 ft 20 kts 157°
2026-04-21 16:07 53.16998 158.44713 124 ft 23 kts 158°
2026-04-21 16:07 53.16845 158.44819 122 ft 25 kts 157°
2026-04-21 16:07 53.16675 158.44937 126 ft 27 kts 157°
2026-04-21 16:08 53.16386 158.45138 127 ft 27 kts 157°
2026-04-21 16:08 53.16210 158.45260 124 ft 27 kts 158°
2026-04-21 16:08 53.16079 158.45356 127 ft 14 kts 140°
2026-04-21 16:09 53.16086 158.45505 125 ft 14 kts 68°
2026-04-21 16:09 53.16084 158.45649 128 ft 14 kts 142°
2026-04-21 16:09 53.15996 158.45714 129 ft 14 kts 157°
2026-04-21 16:09 53.15906 158.45776 130 ft 14 kts 157°
2026-04-21 16:10 53.15817 158.45838 133 ft 14 kts 157°
2026-04-21 16:10 53.15727 158.45900 129 ft 14 kts 157°
2026-04-21 16:10 53.15631 158.45909 127 ft 15 kts 186°
2026-04-21 16:10 53.15554 158.45946 127 ft 10 kts 130°
2026-04-21 16:11 53.15582 158.45996 127 ft 8 kts 353°
2026-04-21 16:11 53.15617 158.45977 125 ft 0 kts 337°
2026-04-21 16:11 53.15632 158.45967 126 ft 13 kts 337°
2026-04-21 16:12 53.15914 158.45772 132 ft 81 kts 338°
2026-04-21 16:12 53.16648 158.45263 127 ft 145 kts 337°
2026-04-21 16:12 53.17713 158.44519 309 ft 174 kts 337°
2026-04-21 16:12 53.18811 158.43696 928 ft 176 kts 335°
2026-04-21 16:13 53.19946 158.42834 1516 ft 182 kts 338°
2026-04-21 16:13 53.21127 158.42014 2260 ft 187 kts 338°
2026-04-21 16:13 53.22404 158.41148 2599 ft 210 kts 338°
2026-04-21 16:13 53.23801 158.40186 3061 ft 226 kts 338°
2026-04-21 16:14 53.25328 158.39133 3506 ft 246 kts 338°
2026-04-21 16:14 53.26926 158.38033 4351 ft 249 kts 338°
2026-04-21 16:14 53.28587 158.36901 5126 ft 258 kts 339°
2026-04-21 16:14 53.30233 158.35769 6052 ft 260 kts 340°
2026-04-21 16:15 53.31959 158.34571 6772 ft 269 kts 340°
2026-04-21 16:15 53.33704 158.33344 7544 ft 273 kts 340°
2026-04-21 16:15 53.35478 158.32149 8320 ft 274 kts 345°
2026-04-21 16:15 53.37398 158.31938 8739 ft 280 kts 18°
2026-04-21 16:16 53.39077 158.33411 9683 ft 271 kts 44°
2026-04-21 16:16 53.40263 158.35833 10385 ft 271 kts 60°
2026-04-21 16:16 53.41239 158.38618 10919 ft 283 kts 62°
2026-04-21 16:16 53.42258 158.41588 11296 ft 303 kts 61°
2026-04-21 16:17 53.43367 158.44798 11422 ft 332 kts 61°
2026-04-21 16:17 53.44575 158.48306 11905 ft 350 kts 61°
2026-04-21 16:17 53.45811 158.51891 12742 ft 358 kts 60°
2026-04-21 16:17 53.47070 158.55534 13715 ft 363 kts 60°
2026-04-21 16:18 53.48345 158.59222 14612 ft 367 kts 60°
2026-04-21 16:18 53.49636 158.62950 15458 ft 372 kts 60°
2026-04-21 16:18 53.50947 158.66735 16279 ft 377 kts 60°
2026-04-21 16:18 53.52275 158.70581 17098 ft 382 kts 60°
2026-04-21 16:19 53.53619 158.74479 17931 ft 388 kts 60°
2026-04-21 16:19 53.54978 158.78424 18697 ft 393 kts 60°
2026-04-21 16:19 53.56351 158.82418 19392 ft 398 kts 60°
2026-04-21 16:19 53.57746 158.86483 20092 ft 402 kts 59°
2026-04-21 16:20 53.59153 158.90589 20784 ft 407 kts 59°
2026-04-21 16:20 53.60577 158.94748 21449 ft 412 kts 59°
2026-04-21 16:20 53.62015 158.98955 22104 ft 417 kts 59°
2026-04-21 16:20 53.63520 159.03228 22706 ft 420 kts 55°
2026-04-21 16:21 53.65480 159.06808 23189 ft 423 kts 38°
2026-04-21 16:21 53.67899 159.09806 23712 ft 429 kts 36°
2026-04-21 16:21 53.70285 159.12781 24255 ft 433 kts 36°
2026-04-21 16:21 53.72726 159.15893 24924 ft 434 kts 36°
2026-04-21 16:22 53.75127 159.18997 25545 ft 436 kts 36°
2026-04-21 16:22 53.77533 159.22138 26109 ft 439 kts 36°
2026-04-21 16:22 53.79959 159.25321 26636 ft 443 kts 36°
2026-04-21 16:22 53.82402 159.28536 27173 ft 446 kts 36°
2026-04-21 16:23 53.84858 159.31776 27727 ft 450 kts 36°
2026-04-21 16:23 53.87337 159.35051 28276 ft 452 kts 36°
2026-04-21 16:23 53.89829 159.38345 28797 ft 455 kts 36°
2026-04-21 16:23 53.92389 159.41735 29285 ft 458 kts 35°
2026-04-21 16:24 53.94906 159.45073 29736 ft 461 kts 35°
2026-04-21 16:24 53.97441 159.48440 30198 ft 464 kts 35°
2026-04-21 16:24 53.99986 159.51826 30666 ft 464 kts 35°
2026-04-21 16:24 54.02521 159.55206 31132 ft 464 kts 35°
2026-04-21 16:25 54.05058 159.58590 31694 ft 461 kts 36°
2026-04-21 16:25 54.07543 159.61913 32231 ft 459 kts 36°
2026-04-21 16:25 54.10091 159.65326 32625 ft 460 kts 36°
2026-04-21 16:25 54.12611 159.68704 32977 ft 462 kts 36°
2026-04-21 16:26 54.15140 159.72102 33377 ft 462 kts 36°
2026-04-21 16:26 54.17661 159.75491 33822 ft 462 kts 36°
2026-04-21 16:26 54.20184 159.78889 34233 ft 462 kts 36°
2026-04-21 16:26 54.22705 159.82288 34533 ft 462 kts 36°
2026-04-21 16:27 54.25237 159.85691 34822 ft 463 kts 36°
2026-04-21 16:27 54.27773 159.89098 35082 ft 465 kts 36°
2026-04-21 16:27 54.30372 159.92592 35135 ft 470 kts 36°
2026-04-21 16:28 54.35504 159.99516 35170 ft 467 kts 36°
2026-04-21 16:28 54.40599 160.06420 35164 ft 460 kts 36°
2026-04-21 16:29 54.44744 160.12054 35174 ft 457 kts 36°
2026-04-21 16:29 54.50558 160.19978 35184 ft 455 kts 36°
2026-04-21 16:30 54.55537 160.26787 35175 ft 456 kts 36°
2026-04-21 16:30 54.59676 160.32464 35190 ft 458 kts 36°
2026-04-21 16:31 54.64662 160.39324 35186 ft 459 kts 36°